Regional Weather Roundup
Issued by NWS Cleveland, OH

Home | Current Version | Previous Version | Graphics & Text | Print | Product List | Glossary On
Versions: 1 2 3 4 5 6 7 8 9 10 11 12 13 14 15 16 17 18 19 20 21 22 23 24 25 26 27 28 29 30 31 32 33 34 35 36 37 38 39 40 41 42 43 44 45 46 47 48 49 50
000
ASUS41 KCLE 271102
RWRCLE
OHIO REGIONAL WEATHER ROUNDUP
NATIONAL WEATHER SERVICE CLEVELAND, OH
600 AM EST THU NOV 27 2014

NOTE: "FAIR" INDICATES FEW OR NO CLOUDS BELOW 12,000 FEET WITH NO
SIGNIFICANT WEATHER AND/OR OBSTRUCTIONS TO VISIBILITY.

OHZ001>008-015>018-024>027-034-035-043-044-271200-
   NORTHWEST OHIO

CITY           SKY/WX    TMP DP  RH WIND       PRES   REMARKS
DEFIANCE       CLOUDY    30  23  75 N10       30.15R WCI  21
FINDLAY        CLOUDY    30  25  81 NW8       30.11R WCI  22
TOLEDO EXPRESS CLOUDY    28  23  81 NW9       30.13R WCI  19
TOLEDO EXEC    CLOUDY    30  23  75 NW12      30.13R WCI  20
LIMA           LGT SNOW  30  25  81 NW8       30.11R WCI  22
$$

OHZ009>014-019>023-028>033-038-089-271200-
   NORTHEAST OHIO

CITY           SKY/WX    TMP DP  RH WIND       PRES   REMARKS
CLE-HOPKINS    SNOW      32  30  92 N9        30.07R VSB 1/2 WCI  24
CLE-LAKEFRONT  CLOUDY    33  31  92 S3        30.04S
CUY CO. ARPT   NOT AVBL
LORAIN-ELYRIA  CLOUDY    32  29  88 N13       30.06R WCI  22
ASHTABULA      CLOUDY    32  29  88 CALM      30.03R
AKRON-CANTON   CLOUDY    32  28  85 NW3       30.01R FOG
WOOSTER        LGT SNOW  31  29  92 NW7       30.03R FOG     WCI  24
MANSFIELD      CLOUDY    30  28  92 NW12      30.04R FOG     WCI  20
YOUNGSTOWN     LGT SNOW  31  29  92 W3        30.00R FOG
$$

OHZ042-051>053-060>062-070>072-077>081-271200-
  SOUTHWEST OHIO

CITY           SKY/WX    TMP DP  RH WIND       PRES   REMARKS
CINC-COVINGTON CLOUDY    29  21  72 NW9       30.14R WCI  20
CINC-LUNKEN    CLOUDY    30  23  75 NW6       30.17R WCI  24
HAMILTON       CLOUDY    30  24  78 NW7       30.16R WCI  23
DAYTON         CLOUDY    30  26  85 NW9       30.12R WCI  22
WRIGHT-PAT AFB CLOUDY    30  26  85 NW5       30.12R WCI  25
DAYTON GENERAL MOCLDY    27  24  89 N5        30.12R WCI  22
WILMINGTON     CLOUDY    27  24  89 NW10      30.11R FOG     WCI  17
$$

OHZ036-037-039>041-045>050-054>059-063>069-073>076-082>088-271200-
  CENTRAL AND SOUTHEAST OHIO

CITY           SKY/WX    TMP DP  RH WIND       PRES   REMARKS
COLUMBUS       CLOUDY    30  26  85 NW8       30.08R WCI  22
OSU AIRPORT    CLOUDY    30  26  85 NW9       30.08R WCI  22
BOLTON FIELD   NOT AVBL
RICKENBACK AFB NOT AVBL
NEWARK         CLOUDY    31  26  82 NW5       30.06R WCI  26
MARION         CLOUDY    30  26  85 NW10      30.08R FOG     WCI  21
LANCASTER      MOCLDY    30  26  85 NW8       30.08R WCI  22
ZANESVILLE     CLOUDY    30  23  75 NW6       30.05R WCI  24
NEW PHILLY     CLOUDY    30  26  85 CALM      30.05R
$$


USA.gov is the U.S. government's official web portal to all federal, state and local government web resources and services.